RYR416 LIRN-LIMJ

Flight info

Callsign RYR416
Flight time 1h 2m
Altitude 34000
Route EDOPA DCT VEXUV DCT PNZ DCT RIFFI DCT ELB DCT BETEN M729 IDONA
Aircraft B38M/M-SDE1FGHILORVWXY/HB1

Departure

Time 2026-04-27 21:22
Airport Naples International Airport (LIRN)

Arrival

Time 2026-04-27 22:25
Airport Genoa Cristoforo Colombo Airport (LIMJ)
Time Latitude Longitude Altitude Speed Heading
2026-04-27 20:53 40.87895 14.28165 314 ft 0 kts 164°
2026-04-27 21:10 40.87914 14.28156 298 ft 4 kts 151°
2026-04-27 21:11 40.87922 14.28149 298 ft 1 kts 141°
2026-04-27 21:18 40.87921 14.28150 299 ft 1 kts 140°
2026-04-27 21:18 40.87917 14.28166 297 ft 2 kts 89°
2026-04-27 21:18 40.87934 14.28179 297 ft 4 kts
2026-04-27 21:18 40.87956 14.28149 297 ft 5 kts 281°
2026-04-27 21:19 40.87944 14.28101 297 ft 6 kts 237°
2026-04-27 21:19 40.87918 14.28056 299 ft 7 kts 230°
2026-04-27 21:19 40.87885 14.28003 301 ft 9 kts 230°
2026-04-27 21:20 40.87852 14.27923 303 ft 0 kts 275°
2026-04-27 21:20 40.87854 14.27908 304 ft 3 kts 283°
2026-04-27 21:20 40.87875 14.27874 301 ft 8 kts 320°
2026-04-27 21:20 40.87922 14.27822 304 ft 7 kts 321°
2026-04-27 21:21 40.87976 14.27796 302 ft 10 kts 10°
2026-04-27 21:21 40.88019 14.27840 300 ft 7 kts 56°
2026-04-27 21:21 40.88099 14.28006 297 ft 63 kts 58°
2026-04-27 21:21 40.88493 14.28840 275 ft 147 kts 58°
2026-04-27 21:22 40.89114 14.30123 385 ft 154 kts 56°
2026-04-27 21:22 40.89675 14.31157 369 ft 134 kts 57°
2026-04-27 21:22 40.90271 14.32333 780 ft 160 kts 59°
2026-04-27 21:22 40.90824 14.33626 1711 ft 165 kts 61°
2026-04-27 21:23 40.91432 14.34986 2311 ft 181 kts 58°
2026-04-27 21:23 40.92124 14.36494 2867 ft 202 kts 58°
2026-04-27 21:23 40.92907 14.38176 3439 ft 227 kts 56°
2026-04-27 21:23 40.94027 14.39630 4433 ft 226 kts 26°
2026-04-27 21:24 40.95554 14.40022 5429 ft 230 kts 354°
2026-04-27 21:24 40.97112 14.39345 6127 ft 247 kts 323°
2026-04-27 21:24 40.98193 14.37533 6781 ft 262 kts 289°
2026-04-27 21:24 40.98361 14.35096 7452 ft 276 kts 259°
2026-04-27 21:25 40.98059 14.32559 8385 ft 280 kts 266°
2026-04-27 21:25 40.97997 14.29969 9426 ft 284 kts 267°
2026-04-27 21:25 40.97917 14.27336 10363 ft 289 kts 267°
2026-04-27 21:25 40.97823 14.24600 10944 ft 307 kts 267°
2026-04-27 21:26 40.97722 14.21696 11503 ft 323 kts 267°
2026-04-27 21:26 40.97608 14.18672 12211 ft 333 kts 267°
2026-04-27 21:26 40.97480 14.15602 13166 ft 336 kts 267°
2026-04-27 21:26 40.97340 14.12495 14010 ft 342 kts 268°
2026-04-27 21:27 40.97196 14.09342 14812 ft 345 kts 267°
2026-04-27 21:27 40.97046 14.06163 15667 ft 348 kts 267°
2026-04-27 21:27 40.96894 14.02956 16493 ft 351 kts 268°
2026-04-27 21:27 40.96739 13.99725 17313 ft 353 kts 268°
2026-04-27 21:28 40.96581 13.96466 18112 ft 356 kts 268°
2026-04-27 21:28 40.96421 13.93185 18829 ft 359 kts 268°
2026-04-27 21:28 40.96258 13.89896 19482 ft 362 kts 266°
2026-04-27 21:28 40.96086 13.86552 20054 ft 365 kts 268°
2026-04-27 21:29 40.95922 13.83195 20748 ft 367 kts 268°
2026-04-27 21:29 40.95755 13.79806 21373 ft 371 kts 268°
2026-04-27 21:29 40.95583 13.76391 22022 ft 373 kts 267°
2026-04-27 21:29 40.95408 13.72948 22647 ft 377 kts 267°
2026-04-27 21:30 40.95231 13.69518 23240 ft 380 kts 267°
2026-04-27 21:30 40.95051 13.66009 23762 ft 385 kts 267°
2026-04-27 21:30 40.94868 13.62465 24268 ft 387 kts 267°
2026-04-27 21:30 40.94681 13.58898 24770 ft 390 kts 267°
2026-04-27 21:31 40.94492 13.55308 25258 ft 393 kts 267°
2026-04-27 21:31 40.94300 13.51685 25737 ft 396 kts 267°
2026-04-27 21:31 40.94106 13.48043 26211 ft 399 kts 266°
2026-04-27 21:31 40.93910 13.44375 26669 ft 402 kts 267°
2026-04-27 21:32 40.93710 13.40676 27130 ft 404 kts 267°
2026-04-27 21:32 40.93508 13.36958 27582 ft 407 kts 267°
2026-04-27 21:32 40.93303 13.33208 28032 ft 410 kts 267°
2026-04-27 21:32 40.93095 13.29441 28464 ft 412 kts 267°
2026-04-27 21:33 40.92885 13.25643 28905 ft 415 kts 267°
2026-04-27 21:33 40.92672 13.21828 29330 ft 418 kts 266°
2026-04-27 21:33 40.92456 13.17985 29744 ft 420 kts 267°
2026-04-27 21:33 40.92238 13.14122 30149 ft 423 kts 266°
2026-04-27 21:34 40.92016 13.10228 30492 ft 426 kts 266°
2026-04-27 21:34 40.91793 13.06319 30834 ft 428 kts 266°
2026-04-27 21:34 40.91571 13.02388 31208 ft 429 kts 268°
2026-04-27 21:34 40.91768 12.98454 31531 ft 429 kts 283°
2026-04-27 21:35 40.92800 12.94770 31874 ft 430 kts 298°
2026-04-27 21:35 40.94547 12.91558 32261 ft 431 kts 311°
2026-04-27 21:35 40.96569 12.88635 32710 ft 431 kts 311°
2026-04-27 21:35 40.98623 12.85750 33181 ft 429 kts 312°
2026-04-27 21:36 41.00684 12.82904 33668 ft 428 kts 313°
2026-04-27 21:36 41.02753 12.80073 34061 ft 428 kts 313°
2026-04-27 21:36 41.06894 12.74440 34108 ft 425 kts 313°
2026-04-27 21:37 41.11008 12.68840 34093 ft 423 kts 313°
2026-04-27 21:37 41.15111 12.63246 34099 ft 423 kts 313°
2026-04-27 21:38 41.19210 12.57645 34104 ft 423 kts 313°
2026-04-27 21:38 41.23282 12.52077 34098 ft 423 kts 313°
2026-04-27 21:39 41.27377 12.46469 34096 ft 423 kts 313°
2026-04-27 21:39 41.31472 12.40849 34102 ft 423 kts 313°
2026-04-27 21:40 41.35561 12.35228 34099 ft 422 kts 313°
2026-04-27 21:40 41.39646 12.29602 34100 ft 422 kts 313°
2026-04-27 21:41 41.43730 12.23966 34096 ft 423 kts 313°
2026-04-27 21:41 41.47809 12.18326 34097 ft 423 kts 313°
2026-04-27 21:42 41.51887 12.12676 34099 ft 423 kts 313°
2026-04-27 21:42 41.55961 12.07021 34099 ft 423 kts 313°
2026-04-27 21:43 41.60035 12.01356 34097 ft 424 kts 313°
2026-04-27 21:43 41.64121 11.95661 34112 ft 424 kts 313°
2026-04-27 21:44 41.68204 11.89961 34123 ft 424 kts 313°
2026-04-27 21:44 41.72284 11.84254 34124 ft 424 kts 313°
2026-04-27 21:45 41.76357 11.78544 34119 ft 424 kts 313°
2026-04-27 21:45 41.80430 11.72823 34109 ft 424 kts 313°
2026-04-27 21:46 41.84517 11.67072 34099 ft 428 kts 313°
2026-04-27 21:46 41.88638 11.61261 34101 ft 430 kts 313°
2026-04-27 21:47 41.92753 11.55448 34098 ft 430 kts 313°
2026-04-27 21:47 41.96868 11.49621 34097 ft 430 kts 313°
2026-04-27 21:48 42.00982 11.43786 34099 ft 430 kts 313°
2026-04-27 21:48 42.05090 11.37946 34101 ft 430 kts 313°
2026-04-27 21:49 42.09208 11.32081 34100 ft 433 kts 313°
2026-04-27 21:49 42.13342 11.26182 34091 ft 434 kts 313°
2026-04-27 21:50 42.17482 11.20261 34097 ft 434 kts 313°
2026-04-27 21:50 42.21592 11.14371 34097 ft 434 kts 313°
2026-04-27 21:51 42.25724 11.08438 34096 ft 434 kts 313°
2026-04-27 21:51 42.29855 11.02495 34095 ft 434 kts 313°
2026-04-27 21:52 42.33980 10.96547 34097 ft 434 kts 313°
2026-04-27 21:52 42.38103 10.90590 34097 ft 434 kts 313°
2026-04-27 21:53 42.42222 10.84627 34096 ft 434 kts 313°
2026-04-27 21:53 42.46341 10.78650 34097 ft 434 kts 313°
2026-04-27 21:54 42.50454 10.72671 34099 ft 434 kts 313°
2026-04-27 21:54 42.54567 10.66679 34098 ft 434 kts 313°
2026-04-27 21:55 42.58680 10.60676 34097 ft 435 kts 313°
2026-04-27 21:55 42.62166 10.55581 34093 ft 435 kts 313°
2026-04-27 21:56 42.68345 10.46525 34098 ft 436 kts 313°
2026-04-27 21:57 42.72498 10.40516 34089 ft 436 kts 319°
2026-04-27 21:57 42.74999 10.38241 34105 ft 433 kts 333°
2026-04-27 21:57 42.77664 10.36323 34080 ft 434 kts 331°
2026-04-27 21:58 42.82936 10.32341 34100 ft 433 kts 331°
2026-04-27 21:58 42.88184 10.28366 33827 ft 433 kts 330°
2026-04-27 21:58 42.90803 10.26338 34184 ft 435 kts 331°
2026-04-27 21:59 42.93446 10.24356 34096 ft 433 kts 331°
2026-04-27 21:59 42.98704 10.20373 34100 ft 432 kts 331°
2026-04-27 22:00 43.03949 10.16378 34100 ft 431 kts 331°
2026-04-27 22:00 43.08302 10.13056 34099 ft 431 kts 331°
2026-04-27 22:01 43.13537 10.09052 34099 ft 431 kts 331°
2026-04-27 22:01 43.16146 10.07055 33780 ft 427 kts 331°
2026-04-27 22:01 43.18761 10.05049 32974 ft 434 kts 331°
2026-04-27 22:01 43.21405 10.03020 32242 ft 437 kts 331°
2026-04-27 22:02 43.24062 10.00979 31448 ft 439 kts 331°
2026-04-27 22:02 43.26733 9.98925 30528 ft 443 kts 331°
2026-04-27 22:02 43.29433 9.96846 29496 ft 445 kts 331°
2026-04-27 22:02 43.32106 9.94788 28457 ft 437 kts 330°
2026-04-27 22:03 43.34733 9.92762 27470 ft 429 kts 330°
2026-04-27 22:03 43.37315 9.90769 26499 ft 423 kts 330°
2026-04-27 22:03 43.39861 9.88802 25572 ft 417 kts 330°
2026-04-27 22:03 43.42373 9.86859 24711 ft 411 kts 330°
2026-04-27 22:04 43.44844 9.84947 23869 ft 405 kts 330°
2026-04-27 22:04 43.47285 9.83056 22946 ft 400 kts 330°
2026-04-27 22:04 43.49692 9.81189 22030 ft 394 kts 330°
2026-04-27 22:04 43.52064 9.79349 21168 ft 389 kts 330°
2026-04-27 22:05 43.54400 9.77535 20342 ft 383 kts 330°
2026-04-27 22:05 43.56708 9.75745 19555 ft 378 kts 330°
2026-04-27 22:05 43.58982 9.73980 18804 ft 373 kts 330°
2026-04-27 22:05 43.61228 9.72236 18028 ft 367 kts 330°
2026-04-27 22:06 43.63438 9.70519 17316 ft 360 kts 330°
2026-04-27 22:06 43.65603 9.68836 16818 ft 356 kts 330°
2026-04-27 22:06 43.67756 9.67159 16364 ft 354 kts 330°
2026-04-27 22:06 43.69894 9.65494 15947 ft 352 kts 330°
2026-04-27 22:07 43.72018 9.63837 15537 ft 349 kts 330°
2026-04-27 22:07 43.74129 9.62190 15127 ft 347 kts 330°
2026-04-27 22:07 43.76225 9.60554 14715 ft 345 kts 330°
2026-04-27 22:07 43.78304 9.58929 14304 ft 343 kts 330°
2026-04-27 22:08 43.80356 9.57325 13880 ft 342 kts 330°
2026-04-27 22:08 43.82420 9.55709 13447 ft 340 kts 330°
2026-04-27 22:08 43.84468 9.54105 13036 ft 337 kts 330°
2026-04-27 22:08 43.86495 9.52517 12669 ft 333 kts 330°
2026-04-27 22:09 43.88485 9.50956 12492 ft 323 kts 330°
2026-04-27 22:09 43.90405 9.49448 12350 ft 313 kts 330°
2026-04-27 22:09 43.92269 9.47984 12224 ft 303 kts 330°
2026-04-27 22:09 43.94074 9.46565 12082 ft 294 kts 330°
2026-04-27 22:10 43.95818 9.45193 11932 ft 282 kts 330°
2026-04-27 22:10 43.97483 9.43881 11804 ft 268 kts 329°
2026-04-27 22:10 43.98855 9.42242 11635 ft 256 kts 306°
2026-04-27 22:10 43.99844 9.40243 11536 ft 246 kts 306°
2026-04-27 22:11 44.00810 9.38355 11462 ft 234 kts 306°
2026-04-27 22:11 44.01713 9.36570 11372 ft 219 kts 305°
2026-04-27 22:11 44.02562 9.34880 11212 ft 207 kts 305°
2026-04-27 22:11 44.03457 9.33380 10987 ft 199 kts 319°
2026-04-27 22:12 44.04544 9.32192 10643 ft 199 kts 323°
2026-04-27 22:12 44.05654 9.31021 10259 ft 201 kts 323°
2026-04-27 22:12 44.06777 9.29838 9856 ft 204 kts 323°
2026-04-27 22:12 44.08040 9.28998 9451 ft 203 kts 353°
2026-04-27 22:13 44.09395 9.29306 9153 ft 197 kts 27°
2026-04-27 22:13 44.10402 9.30506 8990 ft 189 kts 50°
2026-04-27 22:13 44.11231 9.31940 8910 ft 192 kts 50°
2026-04-27 22:13 44.12060 9.33400 8831 ft 193 kts 51°
2026-04-27 22:14 44.12882 9.34868 8706 ft 192 kts 51°
2026-04-27 22:14 44.13723 9.36313 8538 ft 191 kts 43°
2026-04-27 22:14 44.14885 9.37123 8319 ft 188 kts
2026-04-27 22:14 44.16168 9.36919 8121 ft 188 kts 336°
2026-04-27 22:15 44.17286 9.35976 7971 ft 189 kts 324°
2026-04-27 22:15 44.18363 9.34912 7815 ft 190 kts 323°
2026-04-27 22:15 44.19434 9.33830 7643 ft 190 kts 323°
2026-04-27 22:15 44.20499 9.32742 7466 ft 190 kts 323°
2026-04-27 22:16 44.21559 9.31647 7295 ft 190 kts 322°
2026-04-27 22:16 44.22602 9.30561 7115 ft 189 kts 322°
2026-04-27 22:16 44.23669 9.29443 6912 ft 190 kts 322°
2026-04-27 22:16 44.24723 9.28336 6704 ft 190 kts 322°
2026-04-27 22:17 44.25760 9.27243 6523 ft 189 kts 322°
2026-04-27 22:17 44.26809 9.26134 6329 ft 189 kts 321°
2026-04-27 22:17 44.27875 9.25008 6151 ft 190 kts 321°
2026-04-27 22:17 44.28911 9.23913 5960 ft 189 kts 321°
2026-04-27 22:18 44.29963 9.22800 5728 ft 189 kts 321°
2026-04-27 22:18 44.31011 9.21693 5497 ft 189 kts 321°
2026-04-27 22:18 44.32056 9.20588 5269 ft 188 kts 321°
2026-04-27 22:18 44.33074 9.19453 5027 ft 186 kts 311°
2026-04-27 22:19 44.33740 9.17944 4833 ft 182 kts 291°
2026-04-27 22:19 44.34179 9.16282 4592 ft 182 kts 286°
2026-04-27 22:19 44.34563 9.14607 4392 ft 180 kts 285°
2026-04-27 22:19 44.34932 9.12943 4146 ft 179 kts 285°
2026-04-27 22:20 44.35295 9.11286 3908 ft 178 kts 285°
2026-04-27 22:20 44.35657 9.09641 3729 ft 176 kts 285°
2026-04-27 22:20 44.36017 9.08010 3475 ft 175 kts 284°
2026-04-27 22:20 44.36375 9.06379 3219 ft 173 kts 284°
2026-04-27 22:21 44.36709 9.04862 2969 ft 155 kts 283°
2026-04-27 22:21 44.37016 9.03459 2765 ft 148 kts 283°
2026-04-27 22:21 44.37313 9.02105 2547 ft 145 kts 284°
2026-04-27 22:21 44.37609 9.00751 2352 ft 146 kts 284°
2026-04-27 22:22 44.37905 8.99401 2149 ft 145 kts 284°
2026-04-27 22:22 44.38194 8.98059 1907 ft 144 kts 284°
2026-04-27 22:22 44.38462 8.96717 1726 ft 142 kts 283°
2026-04-27 22:22 44.38712 8.95382 1557 ft 142 kts 284°
2026-04-27 22:23 44.38985 8.94059 1290 ft 141 kts 284°
2026-04-27 22:23 44.39285 8.92764 1076 ft 139 kts 288°
2026-04-27 22:23 44.39634 8.91499 937 ft 140 kts 288°
2026-04-27 22:23 44.39955 8.90219 706 ft 138 kts 285°
2026-04-27 22:24 44.40229 8.88943 533 ft 139 kts 284°
2026-04-27 22:24 44.40486 8.87673 369 ft 134 kts 284°
2026-04-27 22:24 44.40745 8.86424 177 ft 133 kts 285°
2026-04-27 22:24 44.40995 8.85187 24 ft 128 kts 284°
2026-04-27 22:25 44.41192 8.84197 26 ft 71 kts 285°
2026-04-27 22:25 44.41266 8.83789 23 ft 30 kts 287°
2026-04-27 22:25 44.41326 8.83498 25 ft 31 kts 285°
2026-04-27 22:25 44.41371 8.83264 28 ft 18 kts 288°
2026-04-27 22:26 44.41437 8.83129 27 ft 13 kts 318°
2026-04-27 22:26 44.41515 8.83092 27 ft 13 kts 19°
2026-04-27 22:26 44.41544 8.83202 28 ft 14 kts 103°
2026-04-27 22:26 44.41515 8.83335 27 ft 12 kts 104°
2026-04-27 22:27 44.41492 8.83468 25 ft 16 kts 104°
2026-04-27 22:27 44.41460 8.83632 23 ft 19 kts 107°
2026-04-27 22:27 44.41421 8.83821 22 ft 21 kts 104°
2026-04-27 22:27 44.41382 8.84027 22 ft 23 kts 105°
2026-04-27 22:28 44.41340 8.84237 19 ft 21 kts 104°
2026-04-27 22:28 44.41316 8.84363 21 ft 8 kts 100°
2026-04-27 22:28 44.41337 8.84446 22 ft 11 kts 54°
2026-04-27 22:28 44.41389 8.84540 20 ft 12 kts 52°
2026-04-27 22:29 44.41441 8.84635 21 ft 11 kts 52°
2026-04-27 22:29 44.41429 8.84736 20 ft 13 kts 128°
2026-04-27 22:29 44.41386 8.84810 20 ft 10 kts 123°
2026-04-27 22:29 44.41366 8.84900 20 ft 9 kts 86°
2026-04-27 22:30 44.41387 8.84967 23 ft 6 kts 60°
2026-04-27 22:30 44.41402 8.85004 20 ft 3 kts 61°
2026-04-27 22:30 44.41408 8.85019 22 ft 0 kts 60°